ジョンソン彗星

48P/Johnson (2004)

English version
Home page
Total 6,336 html files since Dec. 4, 1995
Updated on April 23, 2006

---------------------------------------------------------------------

・ プロフィール

・ 写真集

・ 軌道要素

Epoch 2004 Oct. 2.0 TT = JDT 2453280.5  
T 2004 Oct. 11.96947 TT                                 Muraoka 
q   2.3099737            (2000.0)            P               Q
n   0.14154881     Peri.  207.69527     +0.80772505     +0.55097651
a   3.6464077      Node   117.32961     -0.48780120     +0.82440522
e   0.3665070      Incl.   13.65830     -0.33110457     +0.12954117
P   6.96
From 213 observations 1949-1997, mean residual 0".85.  Nongravitational
   parameters A1 = +0.64 +/- 0.02, A2 = -0.0237 +/- 0.0007.

・ 星図

・ 光度変化

        m1 = 14.5 + 5 logΔ +  5.0 log r  [    ,-170]  (              〜2004年 4月24日)
        m1 = -4.0 + 5 logΔ + 50   log r  [-170, 170]  (2004年 4月24日〜2005年 3月30日)
        m1 = 14.5 + 5 logΔ +  5.0 log r  [ 170,    ]  (2005年 3月30日〜              )

---------------------------------------------------------------------

軌道要素は村岡健治氏の計算によるものです。
星図は StellaNavigator Ver.2.0 for Windows (アストロアーツ 編著 / アスキー出版局刊) で作成したものです。
光度グラフはComet for Windowsで作成したものです。

---------------------------------------------------------------------

Copyright(C) 1995-2008 Seiichi Yoshida (comet@aerith.net). All rights reserved.